Wind_Speed
23 24 27 28 30 31 33 35 37 38 39 42 45 44 43 44 45 46 48 49 49 48 47 47 45 44 44 44 43 42 41 41 40 40 39 39 37 36 35 34 33 32 31 30 29 27 26 26 25 25 24 22 21 21 22 20 19 18 16 14 14 14 14
23 24 27 28 30 32 34 35 36 38 40 42 45 45 44 44 45 47 48 49 50 49 49 48 47 46 46 45 44 43 43 43 41 41 40 40 39 37 37 36 34 33 32 31 29 28 27 27 27 27 26 23 22 22 22 21 20 19 17 16 16 16 16
23 24 26 29 31 33 34 34 35 38 40 41 44 46 46 46 45 46 47 48 49 49 50 50 49 48 47 46 46 44 44 44 42 42 42 40 38 37 36 36 35 33 33 32 31 30 29 29 29 28 28 26 24 24 23 22 21 20 19 18 18 17 17
23 25 26 29 31 31 32 34 36 38 40 42 45 48 47 46 45 45 46 47 48 49 50 50 50 49 48 48 47 46 45 45 43 43 42 39 38 37 36 35 34 33 33 32 32 32 31 30 30 30 30 29 28 27 26 24 23 22 21 20 20 19 18
24 25 25 26 28 29 30 34 37 39 40 43 46 50 49 47 46 45 45 45 47 49 49 49 49 49 49 49 49 48 47 46 45 45 43 40 39 38 37 36 35 33 33 32 32 32 32 32 32 32 32 31 31 30 29 27 25 24 23 22 22 21 20
24 24 24 25 27 29 32 34 36 38 39 40 42 45 46 46 47 47 45 45 46 47 48 48 48 48 49 49 49 48 48 48 48 46 44 42 40 40 39 38 37 35 34 32 32 32 32 33 33 33 33 33 33 32 32 30 27 26 25 24 24 23 21
23 24 25 27 27 29 32 33 34 35 35 35 35 37 38 41 44 45 45 46 46 45 46 47 47 48 49 49 49 49 49 49 48 46 45 43 42 42 40 39 38 37 35 34 33 32 31 32 33 34 34 34 34 34 33 32 29 28 27 26 25 25 23
20 22 24 26 26 26 27 28 29 30 30 31 32 34 36 39 41 42 44 46 46 46 46 46 47 48 48 49 49 49 49 48 48 46 45 44 44 43 41 40 39 38 37 36 35 33 32 32 33 34 34 34 35 35 34 33 31 29 29 28 27 26 25
14 15 16 17 18 19 20 21 24 26 28 31 33 35 36 37 40 43 46 46 45 47 47 46 47 48 48 49 49 48 48 48 48 47 46 46 45 44 42 41 40 39 38 37 36 35 34 33 33 34 35 35 35 36 35 34 33 31 30 30 29 28 27
9 10 11 13 14 16 17 18 21 25 29 33 35 36 35 36 39 43 46 46 47 49 49 48 47 47 48 48 48 48 48 48 48 48 47 47 47 46 44 42 42 40 39 38 38 38 37 35 34 34 35 36 37 37 37 36 34 33 32 32 31 29 29
6 8 10 13 15 16 18 19 22 26 30 33 35 36 36 37 38 39 43 47 49 50 49 48 48 48 48 47 46 47 48 47 47 47 47 47 47 46 45 44 44 43 41 40 40 40 39 37 36 36 36 37 37 38 38 38 36 35 34 34 33 31 30
4 6 9 11 13 15 17 20 22 25 28 32 34 35 37 39 38 37 39 43 46 45 46 48 48 49 49 48 47 48 48 47 46 46 45 45 45 45 44 44 44 44 43 41 40 41 41 40 38 38 38 37 37 38 38 39 38 37 36 35 34 33 32
4 6 8 9 10 12 14 17 20 23 25 29 32 33 35 38 39 37 37 40 41 40 41 46 49 49 50 50 49 50 49 48 47 45 45 44 44 43 43 42 43 44 43 41 40 41 41 41 40 40 39 38 38 38 38 38 39 38 37 36 36 35 34
5 6 6 6 7 9 11 14 18 21 24 27 29 31 33 35 37 39 40 41 40 38 38 42 47 49 50 50 50 51 50 49 47 46 46 46 45 44 44 43 43 43 43 42 41 40 41 41 41 40 39 39 39 39 38 38 39 39 39 39 39 38 37
7 5 6 6 6 5 7 10 14 17 21 25 27 30 32 34 35 39 42 43 43 40 38 41 46 49 50 51 51 51 50 49 47 47 47 47 47 46 45 45 45 44 44 44 43 41 41 41 41 40 40 40 40 40 40 40 41 41 41 40 41 41 39
10 7 5 5 5 6 9 10 11 12 15 20 25 29 32 34 36 38 41 43 44 43 41 41 45 49 50 51 51 51 51 49 47 46 47 48 48 48 46 46 46 46 46 45 44 43 42 41 41 41 41 41 41 41 41 42 42 43 42 42 42 41 41
15 13 13 10 6 8 15 16 14 13 12 15 20 25 30 34 36 38 38 40 43 46 44 42 44 48 50 50 51 51 51 49 47 47 47 47 48 47 47 46 46 46 46 46 45 44 43 42 42 42 42 43 43 43 43 43 44 44 43 43 42 41 41
21 19 19 18 15 17 22 22 18 18 18 17 17 20 26 31 35 37 38 40 42 42 41 42 44 48 49 49 49 50 49 48 47 47 46 47 47 47 46 46 46 47 47 47 46 45 44 44 43 42 43 44 45 45 45 45 44 44 44 43 42 41 40
24 23 24 23 21 24 27 26 22 21 22 21 18 18 21 25 31 35 37 38 39 38 38 42 46 48 48 47 48 47 47 46 46 46 46 47 46 46 46 46 46 47 47 47 46 45 45 46 45 44 44 45 46 47 46 46 45 44 43 43 42 41 39
23 24 25 23 22 26 29 29 27 24 23 23 20 17 19 22 26 31 34 36 38 39 40 42 45 47 47 47 46 45 44 44 45 45 46 46 46 46 47 46 46 47 47 47 47 47 47 47 47 46 45 46 47 47 47 47 47 45 44 43 42 41 39
22 23 23 22 24 29 32 31 28 25 24 24 20 17 19 21 23 27 32 34 36 39 41 42 43 45 45 45 45 43 43 43 43 44 45 46 47 47 47 47 46 47 47 48 48 48 47 48 48 47 46 46 47 48 48 48 48 47 45 43 43 42 39
21 21 20 20 23 28 31 30 27 25 24 23 20 17 19 21 22 25 29 32 34 37 39 40 42 42 43 43 43 43 43 43 43 43 44 46 46 47 47 46 46 46 46 46 47 47 47 48 48 48 48 47 44 45 49 49 48 49 48 45 44 43 40
19 20 21 23 25 27 28 28 26 24 23 22 20 18 18 20 21 23 28 31 33 35 38 40 40 41 42 42 42 42 43 44 44 44 44 45 45 46 45 44 44 44 44 45 46 47 48 48 48 48 48 47 44 45 49 49 48 49 49 47 46 45 43
19 22 24 26 26 24 25 25 23 22 21 19 18 17 18 19 19 22 27 30 32 33 36 39 40 40 42 42 42 42 42 42 42 41 41 42 42 42 42 42 43 44 44 45 45 47 47 47 47 47 47 48 47 47 48 47 46 47 49 49 48 46 45
16 19 22 23 22 20 21 22 19 18 17 16 16 16 16 16 17 20 25 28 29 29 31 35 37 38 40 40 40 40 39 38 38 38 40 40 40 41 42 41 42 42 43 44 44 45 46 46 47 47 47 47 47 46 46 45 44 46 48 49 48 46 46
16 18 17 17 18 17 18 17 14 14 15 15 15 14 14 14 15 19 21 22 25 27 28 31 33 34 34 35 36 36 35 35 36 38 39 39 39 40 40 40 42 42 42 43 43 43 44 45 45 45 45 45 43 43 45 46 45 45 47 49 48 46 46
16 16 15 15 15 13 12 11 12 13 13 13 13 13 14 14 15 16 17 17 20 23 25 27 29 30 30 31 33 33 33 35 37 37 38 38 39 39 39 40 42 43 43 42 41 41 43 43 41 41 41 40 39 39 41 42 42 43 45 47 48 47 47
10 10 10 11 10 9 8 9 11 11 11 12 12 12 12 13 14 15 15 14 15 17 20 22 25 27 28 29 31 32 33 35 36 36 37 37 38 38 39 40 41 41 41 41 40 40 39 36 35 35 36 35 34 34 35 35 35 37 40 43 46 48 48
7 7 6 3 2 3 4 6 9 11 12 13 13 12 12 12 13 14 14 13 14 16 18 20 22 23 24 25 27 29 31 31 33 34 34 34 34 35 36 37 38 39 40 39 37 35 30 26 26 28 30 31 31 32 33 33 33 35 40 43 45 47 49
5 4 3 1 1 1 1 1 4 8 12 14 14 14 14 14 15 16 16 15 16 17 18 19 20 20 19 20 22 23 25 27 28 29 29 29 31 32 33 35 35 36 35 33 32 30 26 24 25 26 27 30 32 31 31 31 30 33 38 43 44 47 50
3 2 2 2 2 3 3 3 4 5 8 12 15 16 16 16 16 16 16 16 15 15 16 16 16 16 16 16 17 18 19 21 23 24 24 25 26 28 30 31 29 28 26 23 24 26 25 26 28 27 27 29 30 29 29 28 28 30 35 40 42 44 48
4 4 3 3 3 4 4 4 5 6 7 10 13 15 16 16 15 15 14 14 14 14 14 13 13 14 14 14 14 15 16 16 17 18 19 20 21 22 22 22 22 22 21 20 21 24 25 25 27 28 28 30 30 29 29 29 30 31 34 38 41 41 42
5 4 4 4 4 4 5 4 5 6 8 10 11 13 14 14 14 13 12 12 11 12 12 10 9 10 10 10 10 11 12 13 13 14 14 15 16 16 16 16 17 19 21 21 22 24 26 26 26 26 27 29 30 30 30 31 32 33 36 39 42 44 44
5 4 4 3 4 5 5 5 5 6 7 8 9 11 13 13 13 12 11 11 10 9 9 8 7 7 8 8 9 9 10 10 11 12 12 12 12 13 13 15 17 18 20 20 21 24 26 26 26 27 27 28 29 30 31 31 32 34 38 41 44 46 47
5 4 4 4 5 5 6 6 5 6 7 7 8 9 10 12 12 11 10 10 9 8 8 8 7 7 7 9 11 12 12 11 9 8 8 9 9 11 16 19 19 20 21 21 22 24 25 27 28 29 30 30 31 33 34 34 35 36 36 39 44 48 49
6 5 5 6 7 7 7 7 7 7 7 7 7 8 9 10 11 10 10 10 9 8 8 8 7 6 6 6 7 8 9 9 8 6 7 9 11 13 18 20 20 22 23 24 25 26 27 29 31 33 34 35 36 36 37 39 41 41 38 38 43 48 51
8 8 9 9 10 10 10 9 9 10 9 9 8 8 9 10 10 10 11 10 10 9 9 9 9 8 7 6 6 6 5 4 4 4 5 7 8 9 11 12 13 17 20 22 23 24 26 28 31 33 35 38 40 43 45 47 49 50 48 47 47 50 52
11 12 12 12 12 12 13 12 12 12 11 11 11 11 11 11 11 11 11 10 10 11 12 12 13 13 11 10 10 9 9 9 8 7 6 5 5 4 5 4 3 2 4 5 7 8 9 11 13 17 20 24 29 34 39 44 49 53 55 56 56 58 58
Wind_Direction
204 204 205 204 203 203 203 202 201 200 201 206 213 215 215 215 216 218 222 224 225 224 222 222 223 223 224 225 225 225 226 228 229 230 232 233 234 234 235 236 237 237 237 237 236 235 235 236 236 238 240 240 240 242 244 246 247 250 249 239 232 232 233
203 206 205 204 205 205 204 203 202 202 204 208 214 216 215 216 217 219 222 224 225 225 224 223 223 224 225 227 228 226 227 228 228 230 232 232 233 234 235 237 237 237 238 239 239 237 236 236 236 238 240 240 240 242 244 246 247 250 253 246 236 232 232
203 206 206 205 206 206 204 202 202 205 207 208 212 217 217 218 219 220 221 224 225 225 225 225 224 224 225 227 229 228 228 229 228 229 231 231 232 233 235 237 237 237 238 238 239 239 237 237 237 237 239 240 240 241 242 244 247 249 251 251 243 236 235
205 207 207 207 207 206 203 201 203 207 209 211 216 220 220 220 221 221 221 223 225 225 225 225 225 225 225 227 229 229 229 229 228 229 231 231 232 234 234 235 236 236 237 237 237 238 238 237 236 237 238 239 240 241 241 242 245 247 249 250 247 238 235
207 209 209 208 207 205 202 202 205 209 211 213 218 223 223 221 221 221 222 223 225 226 226 225 226 226 226 227 229 230 229 229 229 230 232 232 233 235 234 233 234 235 235 236 236 237 236 235 236 236 237 238 238 240 241 240 242 246 247 247 247 240 234
207 208 208 208 206 205 204 205 207 211 213 211 213 218 221 220 221 222 223 223 224 227 228 228 228 227 227 227 228 229 229 230 230 231 233 233 233 235 234 234 234 235 234 235 236 236 236 234 234 235 236 236 236 237 239 239 238 242 244 244 244 241 234
205 203 206 207 207 206 206 206 207 210 213 210 207 210 213 215 220 221 221 224 226 226 227 228 228 228 229 229 228 229 229 230 231 231 232 233 233 234 235 235 235 236 236 236 236 236 236 234 232 233 234 235 235 235 236 237 236 238 242 243 242 240 235
206 203 207 208 208 208 207 207 207 207 209 207 204 205 208 212 216 217 220 223 225 226 227 228 228 228 229 230 230 230 230 231 232 231 231 231 232 233 235 236 236 236 236 237 237 236 236 235 233 232 232 233 234 234 234 235 234 235 239 241 241 240 237
208 204 208 209 209 209 208 206 207 207 206 206 206 205 206 207 211 217 221 222 223 225 227 227 228 229 229 230 230 231 231 232 232 232 231 230 231 232 233 235 236 236 236 236 236 236 235 234 233 232 231 231 233 234 235 235 234 234 236 239 239 239 238
195 199 205 208 207 205 206 206 205 207 206 205 207 207 206 205 207 214 219 220 222 226 228 228 228 229 231 231 231 231 232 232 232 233 232 231 232 232 232 234 236 236 236 235 236 237 236 234 233 233 232 231 232 234 235 235 235 234 235 237 237 238 239
186 206 210 208 205 201 202 203 205 209 209 208 209 209 209 209 207 209 214 218 222 225 226 227 226 228 231 233 233 233 233 233 232 232 233 232 232 232 232 233 235 237 237 236 236 237 238 235 233 234 234 233 233 234 235 236 236 234 235 237 237 236 238
206 226 220 207 201 202 204 205 212 218 218 215 212 210 214 216 212 208 210 216 219 219 221 224 225 226 230 233 234 234 235 235 234 233 233 232 232 232 232 232 234 236 237 237 236 237 238 237 235 234 234 234 234 235 236 237 237 236 236 237 238 236 237
223 227 218 204 199 206 213 215 222 229 229 225 218 213 216 220 218 213 210 213 215 212 214 221 224 226 229 232 234 235 236 236 236 235 235 235 234 233 233 233 234 235 237 237 237 236 237 238 237 236 236 236 236 236 237 238 239 238 237 237 238 237 237
252 220 205 214 214 215 226 232 235 236 236 233 225 217 216 219 221 221 218 218 216 209 209 217 223 226 228 231 233 235 238 238 238 237 237 237 237 236 235 236 236 236 237 238 238 237 237 238 238 237 237 237 237 237 238 239 240 240 238 237 238 238 237
292 235 197 220 238 244 252 252 250 246 243 239 232 225 221 218 219 223 225 224 221 214 209 214 222 226 228 230 234 236 238 240 239 239 238 238 238 238 237 237 238 238 238 239 240 239 239 239 239 239 239 238 238 238 238 239 240 241 239 238 238 238 238
289 264 243 243 255 291 301 291 277 262 249 244 239 233 228 223 221 223 225 225 225 221 214 213 221 226 228 231 235 236 237 239 240 240 239 239 239 239 239 239 239 240 240 240 241 241 240 240 240 240 240 239 238 238 238 238 239 240 240 239 239 238 238
274 273 285 288 276 290 301 298 285 270 260 256 250 240 234 231 229 227 224 223 227 228 221 216 220 226 229 232 234 234 236 238 240 240 240 240 240 240 240 240 240 241 241 242 242 242 242 242 241 241 241 241 240 239 238 238 238 240 240 240 240 240 239
274 277 286 291 286 286 292 290 283 277 275 273 264 250 241 236 232 230 227 225 227 227 222 218 221 228 232 233 233 234 236 238 239 240 241 241 241 241 241 241 241 242 242 243 243 243 243 243 242 241 241 242 242 241 240 239 239 239 241 241 241 241 241
272 276 281 284 283 282 284 283 280 280 279 276 270 260 251 241 234 233 232 228 223 220 219 221 226 230 233 233 234 236 238 239 239 240 241 242 242 242 242 242 242 243 243 244 244 244 244 244 244 242 241 242 243 243 242 242 241 240 240 242 242 242 241
269 273 275 277 277 278 280 279 277 278 277 276 276 267 255 245 238 235 234 230 225 222 222 225 228 231 233 235 236 238 239 240 241 241 242 242 242 242 242 243 244 244 244 245 245 245 245 246 245 244 243 242 243 244 244 244 244 242 240 241 242 242 241
270 272 274 274 274 274 275 274 273 274 274 277 280 270 255 247 237 231 230 230 228 226 226 226 228 230 233 235 237 238 239 240 241 241 241 242 242 242 242 244 245 245 245 245 246 247 247 247 247 246 245 244 245 246 246 246 246 244 242 240 241 241 240
269 271 270 266 265 266 268 268 269 270 272 277 279 270 255 245 233 223 224 228 229 228 227 228 228 230 231 234 235 236 237 238 239 239 239 239 240 241 242 244 245 246 246 245 246 247 248 248 249 248 247 247 246 245 246 246 246 245 243 241 240 240 239
261 261 261 259 261 263 265 266 266 268 272 275 273 264 250 238 226 218 218 224 228 228 227 228 229 230 231 232 234 236 236 237 238 239 239 239 240 242 244 245 247 247 247 246 246 246 247 249 249 249 249 248 245 245 246 246 244 243 243 242 241 239 238
251 255 258 260 262 264 266 266 266 268 271 269 263 255 241 230 221 215 215 220 225 227 227 228 229 230 231 232 234 236 237 238 240 241 241 242 243 245 246 247 248 248 248 248 247 247 247 248 249 250 250 248 247 247 248 245 244 246 245 244 243 241 239
244 251 254 258 261 262 264 266 264 262 258 252 246 238 227 218 212 211 214 220 225 226 226 228 229 230 232 234 235 237 238 240 242 242 243 243 245 245 246 247 248 249 250 250 250 250 249 248 249 250 250 250 249 248 247 246 247 248 248 248 247 245 242
240 245 249 255 257 255 255 255 247 238 234 232 229 218 207 201 200 205 214 221 225 225 225 227 229 230 233 235 237 239 241 242 242 243 243 244 245 246 248 248 249 249 249 250 251 250 249 249 249 249 249 249 248 249 250 250 248 247 250 251 250 248 246
245 245 244 247 245 238 237 235 225 219 219 218 213 203 193 188 191 200 210 217 223 225 226 227 230 232 234 236 238 240 242 243 244 245 245 246 247 248 249 248 247 247 248 249 249 249 250 249 247 246 247 247 246 247 249 250 249 248 251 251 250 247 245
244 240 241 246 238 218 211 217 211 206 206 204 199 193 187 183 185 192 200 207 215 221 223 226 230 232 234 236 238 239 240 242 243 244 245 246 248 249 249 249 248 248 249 250 249 250 251 249 246 246 247 246 246 245 244 246 247 248 249 249 248 247 245
223 221 227 243 247 206 207 210 196 189 190 190 186 182 176 176 179 183 187 191 195 203 212 221 229 232 234 237 238 239 239 240 242 244 246 248 249 250 251 251 250 250 251 250 249 249 248 246 245 247 247 244 244 245 245 245 244 244 248 251 249 247 248
222 227 218 158 60 55 66 117 161 171 177 178 176 172 166 170 178 180 183 188 192 198 207 216 224 228 231 233 235 237 238 239 242 246 250 251 251 251 252 252 251 250 250 250 249 247 244 243 244 246 246 245 244 245 245 244 242 242 248 252 251 249 250
212 208 168 135 115 95 87 89 101 120 146 161 169 171 167 170 178 181 183 187 191 197 205 210 216 219 221 225 227 230 233 236 240 244 248 249 250 251 252 253 251 248 246 246 247 246 245 246 246 247 248 248 248 247 245 244 244 245 248 252 253 251 250
194 188 168 149 130 113 104 106 105 101 113 135 154 165 166 168 174 177 180 180 183 190 195 199 205 208 210 213 215 218 222 225 230 236 241 243 244 246 249 249 246 244 243 243 246 247 247 248 248 247 249 251 252 252 251 248 248 249 250 251 251 251 251
182 181 170 153 133 122 119 116 110 103 103 112 129 145 153 157 163 168 169 167 170 177 181 182 188 194 198 201 205 209 212 212 215 220 224 228 230 232 239 243 242 243 245 245 247 249 250 253 253 252 252 253 254 255 256 254 253 252 251 251 252 253 252
173 180 178 153 129 126 129 126 118 109 104 103 113 128 138 144 148 153 155 152 152 157 161 160 157 158 166 176 184 190 194 198 205 209 210 214 220 226 234 240 241 242 245 247 249 250 251 252 254 254 255 256 257 258 257 256 257 257 254 253 256 257 253
161 164 161 140 128 126 125 122 118 112 104 101 107 118 129 136 139 141 144 147 148 148 151 154 152 149 161 178 187 190 191 192 196 198 200 204 210 218 226 229 230 234 238 239 242 246 249 251 252 254 256 256 257 258 259 258 259 260 259 258 260 259 257
146 137 128 119 113 113 114 112 110 106 101 99 101 106 113 121 127 132 136 143 148 151 156 160 156 152 156 169 182 191 196 201 204 204 204 204 206 216 225 229 232 237 240 242 243 245 250 254 257 259 261 261 261 260 260 261 262 262 261 259 259 260 261
127 117 113 111 108 109 109 107 105 101 97 94 93 94 96 100 103 111 118 123 125 129 138 145 145 146 149 152 162 172 171 174 191 206 217 224 227 233 239 241 242 245 250 254 255 257 259 262 265 267 269 270 270 268 266 264 265 265 263 259 259 260 262
118 114 112 110 109 109 108 104 103 101 98 98 97 95 93 90 88 90 95 96 96 100 108 114 117 118 118 117 122 125 115 105 109 115 116 118 124 129 131 131 144 208 248 257 267 282 288 286 286 284 280 279 280 280 278 272 267 265 263 260 259 258 257
Height
1443 1445 1447 1450 1452 1454 1456 1458 1460 1463 1466 1469 1472 1475 1480 1483 1486 1489 1492 1495 1499 1503 1506 1509 1512 1515 1517 1520 1522 1525 1527 1530 1532 1533 1535 1537 1539 1541 1543 1544 1546 1548 1550 1551 1553 1555 1556 1557 1559 1559 1560 1562 1563 1564 1565 1566 1568 1569 1570 1571 1572 1573 1574
1438 1440 1442 1445 1447 1449 1451 1454 1456 1459 1462 1464 1467 1471 1474 1478 1481 1483 1487 1490 1494 1498 1501 1505 1508 1511 1513 1516 1519 1521 1523 1526 1528 1530 1532 1534 1536 1537 1539 1541 1543 1545 1547 1548 1550 1552 1553 1555 1556 1557 1558 1559 1561 1562 1563 1564 1565 1567 1568 1569 1570 1571 1572
1433 1436 1437 1440 1441 1443 1446 1450 1453 1454 1457 1460 1462 1465 1468 1471 1475 1478 1482 1485 1489 1493 1497 1500 1503 1506 1510 1512 1515 1517 1520 1522 1524 1526 1528 1530 1532 1534 1536 1538 1540 1542 1543 1545 1547 1548 1550 1552 1553 1554 1555 1556 1558 1559 1560 1561 1563 1564 1565 1566 1567 1569 1569
1429 1430 1433 1435 1436 1440 1443 1446 1448 1449 1452 1455 1457 1460 1462 1466 1470 1474 1478 1481 1485 1488 1491 1495 1498 1502 1505 1508 1510 1513 1515 1518 1520 1522 1524 1526 1529 1531 1533 1535 1536 1538 1540 1541 1543 1545 1546 1548 1549 1551 1552 1553 1555 1556 1557 1559 1560 1561 1562 1563 1564 1566 1567
1425 1426 1430 1432 1433 1437 1439 1440 1442 1444 1446 1449 1451 1454 1457 1462 1466 1470 1474 1477 1481 1484 1487 1491 1494 1497 1501 1503 1506 1508 1511 1513 1516 1518 1520 1523 1525 1527 1529 1531 1533 1535 1536 1538 1539 1541 1542 1544 1545 1547 1548 1550 1551 1553 1554 1555 1557 1558 1559 1561 1562 1563 1564
1421 1423 1426 1427 1430 1432 1433 1435 1437 1439 1442 1445 1448 1451 1455 1459 1462 1465 1469 1473 1477 1480 1483 1488 1490 1493 1496 1498 1501 1504 1506 1509 1511 1514 1517 1519 1522 1523 1525 1527 1529 1531 1533 1534 1536 1537 1538 1540 1542 1543 1545 1546 1548 1549 1550 1552 1554 1555 1556 1558 1559 1560 1561
1416 1419 1421 1423 1425 1427 1428 1431 1434 1437 1440 1443 1448 1451 1453 1457 1459 1462 1466 1468 1472 1476 1479 1482 1485 1488 1491 1493 1496 1499 1501 1504 1507 1510 1513 1515 1517 1519 1521 1523 1525 1527 1529 1531 1532 1533 1535 1536 1538 1539 1541 1543 1544 1546 1547 1548 1550 1552 1553 1554 1556 1557 1558
1413 1415 1417 1419 1421 1424 1426 1429 1432 1435 1438 1442 1445 1447 1449 1452 1455 1458 1461 1463 1467 1471 1474 1477 1480 1483 1485 1488 1491 1494 1496 1500 1502 1506 1509 1511 1513 1515 1517 1519 1521 1523 1525 1527 1528 1529 1531 1532 1534 1536 1537 1539 1540 1542 1543 1545 1547 1548 1549 1551 1552 1554 1555
1412 1414 1416 1418 1420 1423 1425 1428 1431 1434 1436 1438 1440 1442 1444 1447 1450 1452 1455 1459 1462 1465 1468 1471 1475 1478 1481 1483 1486 1489 1492 1495 1498 1501 1504 1506 1508 1510 1512 1514 1516 1519 1520 1522 1524 1525 1527 1529 1530 1532 1533 1535 1536 1538 1540 1541 1543 1545 1546 1547 1549 1550 1552
1411 1413 1415 1417 1419 1421 1423 1426 1428 1429 1431 1433 1435 1437 1440 1442 1444 1447 1450 1454 1457 1458 1462 1466 1470 1473 1475 1478 1481 1484 1487 1490 1493 1496 1498 1501 1503 1505 1508 1511 1512 1514 1516 1518 1520 1521 1523 1525 1527 1528 1529 1531 1533 1534 1536 1538 1540 1541 1543 1544 1545 1547 1548
1410 1412 1412 1414 1416 1418 1420 1422 1423 1424 1426 1428 1430 1433 1436 1438 1440 1443 1445 1448 1450 1453 1457 1461 1465 1467 1470 1473 1476 1479 1482 1485 1488 1490 1493 1496 1498 1501 1504 1507 1508 1509 1511 1513 1515 1517 1519 1521 1523 1524 1525 1527 1529 1530 1532 1534 1536 1538 1539 1540 1542 1544 1545
1409 1409 1410 1412 1413 1415 1417 1418 1420 1421 1422 1425 1427 1429 1432 1434 1436 1439 1441 1443 1446 1449 1453 1456 1460 1462 1465 1468 1471 1474 1476 1479 1482 1485 1488 1491 1494 1497 1500 1502 1504 1505 1506 1508 1511 1513 1515 1516 1518 1520 1521 1523 1525 1527 1529 1530 1532 1534 1536 1537 1538 1540 1542
1407 1408 1409 1410 1411 1413 1414 1415 1417 1418 1419 1421 1423 1426 1428 1430 1433 1436 1438 1439 1443 1447 1449 1451 1454 1457 1460 1463 1465 1468 1470 1473 1477 1480 1483 1486 1488 1492 1494 1497 1499 1500 1502 1504 1506 1508 1510 1512 1514 1515 1517 1520 1522 1524 1525 1527 1528 1530 1532 1534 1535 1536 1538
1406 1406 1407 1408 1410 1411 1412 1413 1415 1416 1417 1419 1421 1423 1425 1427 1430 1432 1433 1436 1439 1443 1446 1447 1449 1452 1455 1458 1460 1462 1464 1468 1472 1475 1478 1481 1484 1487 1489 1491 1494 1495 1497 1500 1501 1503 1506 1507 1509 1511 1514 1516 1518 1520 1521 1523 1524 1525 1527 1530 1531 1532 1534
1405 1405 1406 1407 1408 1409 1411 1412 1413 1414 1416 1417 1419 1420 1421 1423 1426 1427 1430 1432 1434 1438 1441 1443 1445 1447 1450 1452 1454 1456 1459 1463 1467 1470 1474 1476 1479 1481 1484 1486 1489 1491 1493 1494 1496 1499 1501 1503 1506 1507 1509 1511 1513 1515 1517 1518 1519 1520 1522 1525 1526 1528 1529
1403 1403 1404 1405 1406 1407 1409 1410 1411 1412 1414 1414 1415 1416 1418 1420 1421 1423 1425 1428 1430 1433 1436 1439 1441 1442 1445 1447 1449 1452 1455 1459 1462 1465 1468 1471 1473 1476 1479 1481 1484 1486 1488 1489 1491 1494 1496 1499 1501 1502 1504 1506 1508 1509 1511 1512 1513 1515 1517 1519 1521 1523 1525
1401 1401 1402 1403 1405 1406 1407 1408 1409 1410 1411 1411 1412 1413 1414 1416 1417 1419 1422 1424 1426 1428 1432 1435 1437 1438 1440 1443 1445 1449 1452 1455 1458 1461 1463 1465 1468 1471 1474 1477 1479 1481 1483 1485 1487 1489 1491 1493 1496 1497 1499 1500 1502 1504 1505 1506 1507 1509 1512 1514 1517 1519 1521
1398 1399 1400 1401 1403 1404 1405 1406 1406 1407 1407 1408 1409 1409 1410 1411 1413 1415 1417 1419 1421 1425 1429 1432 1433 1434 1436 1439 1442 1445 1448 1451 1454 1456 1458 1461 1463 1466 1469 1472 1474 1476 1478 1480 1482 1484 1486 1488 1490 1492 1494 1495 1496 1497 1498 1500 1502 1504 1506 1509 1512 1515 1517
1397 1397 1398 1400 1401 1401 1402 1403 1404 1404 1404 1405 1406 1406 1406 1408 1409 1410 1412 1416 1420 1423 1426 1428 1429 1431 1433 1436 1439 1441 1444 1448 1450 1452 1454 1456 1459 1462 1465 1467 1469 1471 1473 1475 1478 1480 1481 1483 1485 1487 1489 1489 1490 1491 1493 1494 1496 1499 1502 1504 1507 1510 1513
1397 1397 1398 1399 1399 1399 1399 1400 1401 1402 1401 1402 1403 1403 1403 1404 1405 1406 1409 1413 1416 1419 1421 1423 1425 1428 1430 1433 1436 1438 1441 1444 1446 1448 1450 1453 1456 1459 1461 1463 1465 1467 1469 1472 1473 1475 1476 1478 1480 1481 1483 1484 1485 1486 1488 1489 1491 1493 1496 1499 1501 1504 1508
1397 1397 1397 1397 1397 1396 1396 1397 1398 1399 1399 1399 1399 1400 1400 1400 1401 1404 1406 1408 1411 1413 1416 1418 1421 1423 1426 1429 1431 1434 1437 1439 1441 1444 1447 1450 1453 1455 1456 1459 1461 1463 1465 1467 1469 1470 1472 1473 1474 1476 1477 1479 1480 1482 1482 1484 1486 1487 1490 1493 1495 1498 1502
1395 1395 1395 1395 1394 1393 1393 1394 1395 1395 1396 1396 1396 1396 1397 1397 1399 1401 1402 1404 1406 1409 1412 1415 1418 1420 1422 1424 1426 1429 1431 1434 1437 1440 1443 1445 1448 1449 1452 1454 1455 1457 1460 1462 1464 1466 1467 1468 1469 1470 1472 1474 1476 1476 1477 1478 1480 1481 1483 1486 1489 1492 1495
1392 1392 1392 1392 1391 1390 1391 1392 1392 1392 1392 1393 1393 1393 1394 1394 1396 1397 1399 1401 1403 1405 1409 1412 1414 1416 1417 1419 1422 1425 1428 1431 1434 1436 1439 1441 1443 1445 1446 1448 1450 1452 1455 1457 1459 1460 1461 1463 1464 1465 1467 1469 1471 1471 1471 1473 1474 1475 1477 1480 1483 1486 1488
1389 1389 1389 1388 1388 1388 1388 1389 1389 1390 1390 1390 1390 1390 1390 1391 1393 1395 1396 1397 1399 1402 1405 1407 1409 1412 1414 1417 1420 1422 1425 1428 1430 1433 1435 1437 1438 1440 1442 1444 1446 1448 1450 1452 1454 1455 1457 1458 1460 1461 1462 1463 1465 1465 1466 1468 1469 1470 1472 1475 1477 1480 1481
1386 1387 1386 1386 1386 1386 1387 1387 1387 1387 1387 1387 1387 1387 1388 1389 1391 1392 1394 1395 1397 1400 1402 1404 1406 1409 1412 1415 1417 1420 1422 1424 1427 1429 1430 1432 1434 1436 1438 1440 1442 1444 1446 1447 1449 1451 1452 1454 1455 1456 1457 1458 1460 1461 1463 1464 1465 1466 1468 1470 1472 1474 1476
1385 1385 1384 1384 1384 1385 1385 1385 1385 1385 1384 1384 1385 1385 1386 1387 1389 1391 1392 1393 1395 1397 1399 1401 1404 1407 1410 1412 1415 1417 1419 1421 1423 1424 1426 1429 1431 1433 1436 1437 1439 1441 1442 1443 1445 1447 1448 1449 1450 1451 1452 1454 1456 1457 1458 1459 1460 1461 1461 1463 1466 1469 1472
1383 1383 1383 1383 1383 1383 1383 1383 1383 1382 1382 1383 1383 1384 1385 1386 1388 1389 1391 1392 1394 1396 1398 1400 1403 1405 1407 1410 1412 1415 1417 1418 1420 1422 1424 1427 1428 1430 1432 1434 1436 1438 1439 1441 1442 1444 1444 1446 1447 1448 1450 1451 1453 1453 1454 1454 1455 1456 1456 1457 1459 1462 1465
1383 1383 1382 1382 1382 1382 1382 1382 1381 1381 1381 1382 1382 1383 1384 1385 1386 1388 1389 1391 1393 1395 1398 1399 1401 1403 1405 1407 1410 1412 1414 1416 1418 1419 1422 1424 1426 1427 1429 1431 1433 1435 1437 1438 1440 1440 1441 1443 1444 1445 1446 1447 1448 1449 1449 1450 1451 1451 1451 1451 1452 1454 1457
1383 1382 1382 1382 1382 1382 1382 1381 1380 1380 1380 1381 1381 1382 1383 1384 1385 1386 1388 1389 1391 1393 1395 1397 1399 1401 1403 1405 1408 1410 1412 1414 1415 1417 1419 1421 1423 1425 1427 1428 1430 1432 1433 1435 1436 1437 1438 1440 1440 1441 1442 1442 1443 1443 1444 1444 1446 1447 1446 1446 1447 1448 1450
1383 1383 1382 1382 1383 1383 1382 1382 1381 1380 1380 1380 1381 1382 1382 1383 1384 1385 1386 1387 1389 1391 1393 1395 1398 1400 1402 1404 1405 1407 1410 1412 1413 1415 1416 1418 1420 1422 1423 1425 1427 1428 1430 1431 1433 1434 1435 1436 1437 1437 1437 1437 1438 1438 1438 1439 1441 1442 1440 1439 1440 1442 1443
1385 1385 1384 1383 1383 1383 1383 1383 1382 1381 1381 1380 1381 1381 1381 1382 1383 1384 1385 1386 1388 1390 1392 1394 1396 1398 1400 1402 1403 1405 1407 1409 1411 1412 1414 1416 1418 1419 1420 1422 1424 1426 1428 1429 1429 1430 1431 1432 1433 1433 1433 1433 1433 1433 1433 1435 1436 1435 1433 1431 1432 1434 1437
1386 1386 1385 1384 1383 1383 1384 1384 1384 1383 1382 1381 1381 1381 1381 1382 1383 1384 1385 1386 1388 1390 1392 1394 1395 1397 1398 1400 1401 1403 1405 1407 1408 1410 1411 1413 1415 1417 1418 1420 1422 1424 1425 1426 1427 1427 1427 1428 1429 1430 1430 1430 1430 1429 1430 1432 1432 1430 1428 1426 1427 1429 1431
1386 1386 1386 1384 1383 1383 1384 1385 1385 1384 1383 1382 1382 1381 1382 1382 1383 1384 1386 1387 1388 1390 1391 1393 1395 1396 1398 1399 1401 1402 1403 1405 1407 1408 1410 1411 1413 1415 1417 1419 1420 1421 1422 1423 1424 1424 1425 1425 1426 1426 1426 1426 1427 1427 1427 1428 1427 1426 1425 1423 1421 1422 1423
1385 1386 1386 1384 1383 1384 1385 1386 1386 1385 1384 1383 1382 1382 1382 1383 1384 1385 1386 1387 1389 1390 1391 1392 1394 1396 1397 1399 1400 1401 1403 1404 1405 1406 1408 1410 1412 1414 1415 1416 1417 1418 1419 1420 1421 1422 1422 1422 1422 1423 1423 1423 1424 1423 1423 1423 1422 1421 1421 1420 1417 1417 1418
1385 1386 1386 1384 1384 1384 1385 1386 1386 1386 1386 1385 1384 1384 1384 1384 1385 1386 1386 1388 1389 1390 1391 1392 1393 1395 1396 1397 1398 1399 1400 1402 1403 1404 1406 1408 1410 1411 1412 1412 1413 1414 1415 1417 1418 1417 1418 1418 1418 1419 1419 1419 1419 1419 1418 1418 1416 1416 1418 1417 1414 1412 1413
1386 1386 1385 1385 1384 1384 1385 1386 1387 1387 1387 1386 1386 1386 1385 1385 1386 1386 1387 1388 1389 1389 1391 1391 1392 1393 1394 1395 1396 1397 1398 1399 1401 1402 1403 1405 1407 1408 1408 1409 1411 1412 1412 1413 1414 1415 1415 1414 1414 1415 1415 1414 1414 1414 1414 1412 1411 1410 1413 1413 1409 1406 1406
1386 1386 1386 1386 1386 1386 1386 1387 1387 1388 1388 1388 1388 1388 1387 1386 1386 1387 1388 1388 1389 1390 1391 1391 1391 1392 1393 1394 1395 1396 1397 1398 1399 1400 1402 1403 1404 1406 1407 1408 1409 1410 1410 1410 1411 1412 1412 1412 1412 1412 1412 1411 1410 1409 1408 1407 1406 1404 1406 1406 1404 1400 1399
1386 1386 1387 1387 1387 1387 1388 1388 1389 1389 1389 1390 1390 1390 1389 1389 1388 1389 1389 1390 1390 1391 1391 1391 1392 1392 1392 1393 1394 1395 1396 1398 1399 1400 1402 1403 1404 1405 1406 1407 1408 1408 1408 1409 1409 1410 1410 1410 1409 1409 1409 1408 1406 1404 1401 1400 1398 1397 1396 1396 1395 1393 1391